CW1490 Weather Reports


time (UTC)temp
C
wind
direction
speed
KPH
gust
KPH
rain 1hr
cm
rain 24hr
cm
rain mn
cm
humidity
%
barometer
mb
20260506143018 16 210 11.3 27.4 0.00 0.00 0.00 79 1008.4
20260506142509 16 231 17.7 27.4 0.00 0.00 0.00 78 1008.2
20260506142010 16 207 14.5 24.1 0.00 0.00 0.00 78 1008.2
20260506141517 16 236 12.9 32.2 0.00 0.00 0.00 78 1008.1
20260506141006 16 254 19.3 32.2 0.00 0.00 0.00 78 1008.4
20260506140507 16 231 14.5 29.0 0.00 0.00 0.00 78 1008.6
20260506140020 16 225 16.1 29.0 0.00 0.00 0.00 78 1008.4
20260506135507 16 219 12.9 27.4 0.00 0.00 0.00 79 1008.2
20260506135013 16 227 19.3 35.4 0.00 0.00 0.00 79 1008.1
20260506134543 16 231 19.3 35.4 0.00 0.00 0.00 79 1008.1
20260506133508 16 221 11.3 19.3 0.00 0.00 0.00 79 1008.1
20260506133022 16 221 6.4 19.3 0.00 0.00 0.00 81 1008.1
20260506132509 16 210 9.7 20.9 0.00 0.00 0.00 80 1007.9
20260506132007 16 224 9.7 20.9 0.00 0.00 0.00 81 1008.1
20260506131526 15 217 9.7 29.0 0.00 0.00 0.00 81 1008.2
20260506131008 15 221 14.5 29.0 0.00 0.00 0.00 81 1008.4
20260506130510 15 217 11.3 29.0 0.00 0.00 0.00 81 1008.5
20260506130020 15 203 17.7 30.6 0.00 0.00 0.00 81 1008.6
20260506125507 15 191 16.1 30.6 0.00 0.00 0.00 81 1008.6
20260506125008 15 208 12.9 37.0 0.00 0.00 0.00 81 1008.7
20260506124522 15 215 16.1 37.0 0.00 0.00 0.00 81 1008.7
20260506124007 15 189 16.1 30.6 0.00 0.00 0.00 81 1008.9
20260506123508 15 237 16.1 32.2 0.00 0.00 0.00 81 1008.9
20260506123020 15 203 16.1 32.2 0.00 0.00 0.00 81 1009.0
20260506122511 15 202 16.1 25.7 0.00 0.00 0.00 81 1008.8
20260506122007 15 229 12.9 25.7 0.00 0.00 0.00 81 1008.8
20260506121522 15 203 11.3 30.6 0.00 0.00 0.00 82 1008.7
20260506121009 15 203 14.5 30.6 0.00 0.00 0.00 81 1008.6
20260506120503 15 232 12.9 35.4 0.00 0.00 0.00 81 1008.4
20260506120025 15 219 19.3 33.8 0.00 0.00 0.00 82 1008.3
20260506115505 15 213 12.9 30.6 0.00 0.00 0.00 82 1008.3
20260506115012 15 198 16.1 29.0 0.00 0.00 0.00 82 1008.2
20260506114521 15 223 12.9 25.7 0.00 0.00 0.00 82 1008.6
20260506114006 15 205 14.5 24.1 0.00 0.00 0.00 83 1008.6
20260506113507 15 227 12.9 24.1 0.00 0.00 0.00 83 1008.6
20260506113019 15 178 11.3 24.1 0.00 0.00 0.00 83 1008.7
20260506112506 15 214 16.1 24.1 0.00 0.00 0.00 83 1008.8
20260506112014 15 213 11.3 20.9 0.00 0.00 0.00 84 1008.9
20260506111522 14 360 9.7 22.5 0.00 0.00 0.00 84 1008.9
20260506111006 14 232 8.0 22.5 0.00 0.00 0.00 84 1008.8
20260506110509 14 166 8.0 14.5 0.00 0.00 0.00 85 1008.7
20260506110026 13 209 3.2 12.9 0.00 0.00 0.00 86 1008.7
20260506105510 13 225 6.4 12.9 0.00 0.00 0.00 86 1008.8
20260506105010 13 236 6.4 12.9 0.00 0.00 0.00 87 1008.7
20260506104510 13 232 4.8 16.1 0.00 0.00 0.00 88 1008.7
20260506104002 12 221 8.0 16.1 0.00 0.00 0.00 89 1008.7
20260506103503 12 217 1.6 6.4 0.00 0.00 0.00 89 1008.7
20260506103022 12 119 1.6 6.4 0.00 0.00 0.00 89 1008.8
20260506102507 11 238 1.6 6.4 0.00 0.00 0.00 89 1008.8
20260506102010 11 238 1.6 6.4 0.00 0.00 0.00 89 1008.6
20260506101519 11 190 1.6 4.8 0.00 0.00 0.00 89 1008.7
20260506101007 11 227 1.6 6.4 0.00 0.00 0.00 89 1008.7
20260506100506 11 243 1.6 8.0 0.00 0.00 0.00 89 1008.6
20260506100031 11 238 3.2 8.0 0.00 0.00 0.00 89 1008.6
20260506095507 11 221 0.0 3.2 0.00 0.00 0.00 90 1008.6
20260506095009 11 325 0.0 3.2 0.00 0.00 0.00 90 1008.7
20260506094524 11 26 1.6 3.2 0.00 0.00 0.00 89 1008.6
20260506094009 11 80 0.0 3.2 0.00 0.00 0.00 89 1008.6
20260506093509 11 221 0.0 3.2 0.00 0.00 0.00 89 1008.6
20260506093013 11 238 1.6 3.2 0.00 0.00 0.00 89 1008.6
20260506092507 11 265 0.0 3.2 0.00 0.00 0.00 89 1008.5
20260506092007 11 221 0.0 3.2 0.00 0.00 0.00 89 1008.6
20260506091519 11 238 0.0 3.2 0.00 0.00 0.00 88 1008.5
20260506091003 11 221 0.0 3.2 0.00 0.00 0.00 88 1008.7
20260506090502 11 238 0.0 4.8 0.00 0.00 0.00 88 1008.7
20260506090006 11 247 0.0 4.8 0.00 0.00 0.00 88 1008.7
20260506085501 11 279 0.0 3.2 0.00 0.00 0.00 87 1008.6
20260506085003 12 298 1.6 3.2 0.00 0.00 0.00 87 1008.6
20260506084504 12 9 0.0 3.2 0.00 0.00 0.00 87 1008.6
20260506084004 12 178 0.0 3.2 0.00 0.00 0.00 86 1008.6
20260506083504 12 51 0.0 3.2 0.00 0.00 0.00 86 1008.8
20260506083011 12 221 0.0 3.2 0.00 0.00 0.00 86 1008.8
20260506082506 12 221 1.6 4.8 0.00 0.00 0.00 85 1008.7
20260506082006 12 243 1.6 4.8 0.00 0.00 0.00 86 1008.7
20260506081521 12 265 3.2 4.8 0.00 0.00 0.00 84 1008.7
20260506081010 12 247 3.2 4.8 0.00 0.00 0.00 83 1008.7
20260506080507 13 265 1.6 4.8 0.00 0.00 0.00 83 1008.7
20260506073506 14 93 1.6 6.4 0.00 0.00 0.00 78 1008.9
20260506073007 14 9 3.2 6.4 0.00 0.00 0.00 78 1009.1
20260506072504 14 243 1.6 8.0 0.00 0.00 0.00 78 1009.0
20260506072004 15 282 1.6 8.0 0.00 0.00 0.00 77 1008.9
20260506071513 15 205 3.2 8.0 0.00 0.00 0.00 77 1008.9
20260506071009 15 178 1.6 8.0 0.00 0.00 0.00 77 1008.8
20260506070504 15 137 3.2 8.0 0.00 0.00 0.00 77 1008.9
20260506062503 15 190 3.2 6.4 0.00 0.00 0.00 73 1008.7
20260506062003 15 212 3.2 6.4 0.00 0.00 0.00 72 1008.7
20260506061511 16 188 3.2 8.0 0.00 0.00 0.00 72 1008.7
20260506061004 16 221 3.2 11.3 0.00 0.00 0.00 72 1008.8
20260506060506 16 232 4.8 14.5 0.00 0.00 0.00 70 1008.8
20260506051003 17 201 12.9 24.1 0.00 0.00 0.00 67 1008.9
20260506050504 17 223 12.9 24.1 0.00 0.00 0.00 67 1008.9
20260506045004 17 196 9.7 22.5 0.00 0.00 0.00 66 1008.9
20260506044518 17 195 9.7 22.5 0.00 0.00 0.00 66 1008.9
20260506044008 17 168 14.5 30.6 0.00 0.00 0.00 65 1009.0
20260506043508 17 208 11.3 30.6 0.00 0.00 0.00 65 1008.9
20260506043026 17 170 16.1 33.8 0.00 0.00 0.00 65 1009.0
20260506042508 17 207 20.9 33.8 0.00 0.00 0.00 65 1008.9
20260506042012 18 236 12.9 30.6 0.00 0.00 0.00 65 1008.9
20260506041523 18 211 14.5 30.6 0.00 0.00 0.00 65 1008.9
20260506041010 18 187 12.9 29.0 0.00 0.00 0.00 65 1008.8
20260506040509 18 196 16.1 25.7 0.00 0.00 0.00 65 1008.9
20260506040008 18 196 14.5 29.0 0.00 0.00 0.00 65 1008.9
20260506035503 18 221 16.1 29.0 0.00 0.00 0.00 65 1008.9
20260506035004 18 202 11.3 27.4 0.00 0.00 0.00 66 1008.9
20260506034512 18 196 12.9 35.4 0.00 0.00 0.00 65 1008.8
20260506034007 18 220 16.1 35.4 0.00 0.00 0.00 65 1009.0
20260506033508 18 196 17.7 32.2 0.00 0.00 0.00 65 1008.9
20260506033028 18 184 14.5 22.5 0.00 0.00 0.00 66 1008.8
20260506032509 18 194 11.3 19.3 0.00 0.00 0.00 66 1008.7
20260506032009 18 182 9.7 17.7 0.00 0.00 0.00 66 1008.8
20260506031529 18 217 9.7 19.3 0.00 0.00 0.00 66 1008.8
20260506031009 18 234 9.7 22.5 0.00 0.00 0.00 66 1008.9
20260506030507 19 203 12.9 22.5 0.00 0.00 0.00 65 1008.8
20260506030025 18 212 12.9 24.1 0.00 0.00 0.00 66 1008.8
20260506025511 18 225 14.5 27.4 0.00 0.00 0.00 67 1008.8
20260506025011 19 225 9.7 27.4 0.00 0.00 0.00 67 1008.6
20260506024537 19 194 11.3 24.1 0.00 0.00 0.00 67 1008.7
20260506024004 19 186 9.7 17.7 0.00 0.00 0.00 68 1008.7
20260506023504 19 175 8.0 20.9 0.00 0.00 0.00 68 1008.6
20260506023015 19 221 11.3 22.5 0.00 0.00 0.00 68 1008.6
20260506022506 18 209 9.7 22.5 0.00 0.00 0.00 69 1008.5
20260506022013 18 148 9.7 19.3 0.00 0.00 0.00 70 1008.6
20260506021522 18 212 9.7 25.7 0.00 0.00 0.00 71 1008.8
20260506021007 18 210 11.3 25.7 0.00 0.00 0.00 72 1008.8
20260506020508 18 224 11.3 17.7 0.00 0.00 0.00 73 1009.0
20260506020025 18 219 4.8 11.3 0.00 0.00 0.00 72 1008.9
20260506015511 18 265 4.8 11.3 0.00 0.00 0.00 72 1008.9
20260506015011 18 280 1.6 4.8 0.00 0.00 0.00 72 1008.6
20260506014527 18 282 1.6 4.8 0.00 0.00 0.00 71 1008.5
20260506014011 18 265 0.0 4.8 0.00 0.00 0.00 69 1008.3
20260506013508 19 178 0.0 11.3 0.00 0.00 0.00 67 1008.2
20260506013031 19 265 3.2 14.5 0.00 0.00 0.00 66 1008.2
20260506012505 19 236 4.8 14.5 0.00 0.00 0.00 68 1008.3
20260506012007 19 219 8.0 12.9 0.00 0.00 0.00 68 1008.1
20260506011541 19 210 6.4 11.3 0.00 0.00 0.00 69 1007.9
20260506011007 19 194 6.4 11.3 0.00 0.00 0.00 68 1007.8
20260506010511 19 219 8.0 11.3 0.00 0.00 0.00 67 1007.9
20260506010023 19 219 4.8 8.0 0.00 0.00 0.00 69 1007.8
20260506005509 19 265 1.6 8.0 0.00 0.00 0.00 67 1007.8
20260506005008 20 243 3.2 8.0 0.00 0.00 0.00 67 1007.8
20260506004526 20 265 4.8 8.0 0.00 0.00 0.00 64 1007.8
20260506004010 20 178 4.8 8.0 0.00 0.00 0.00 66 1007.8
20260506003512 20 221 0.0 4.8 0.00 0.00 0.00 65 1007.6
20260506003013 20 67 1.6 4.8 0.00 0.00 0.00 64 1007.7
20260506002504 20 247 0.0 9.7 0.00 0.00 0.00 64 1007.9
20260506002002 20 9 4.8 9.7 0.00 0.00 0.00 62 1007.9
20260506001504 20 216 4.8 9.7 0.00 0.00 0.00 63 1007.9
20260506001006 21 221 1.6 11.3 0.00 0.00 0.00 60 1007.7
20260506000506 21 163 4.8 11.3 0.00 0.00 0.00 58 1007.6
20260506000002 21 238 3.2 12.9 0.00 0.00 0.00 61 1007.5
20260505235502 21 30 3.2 12.9 0.00 0.00 0.00 60 1007.5
20260505235003 21 141 4.8 9.7 0.00 0.00 0.00 60 1007.6
20260505234538 21 170 3.2 8.0 0.00 0.00 0.00 61 1007.5
20260505234005 21 178 3.2 6.4 0.00 0.00 0.00 62 1007.4
20260505233502 21 93 3.2 16.1 0.00 0.00 0.00 61 1007.2
20260505233028 21 9 3.2 16.1 0.00 0.00 0.00 60 1007.0
20260505232505 21 43 4.8 12.9 0.00 0.00 0.00 60 1006.9
20260505232004 21 9 4.8 14.5 0.00 0.00 0.00 59 1006.7
20260505231514 21 32 4.8 20.9 0.00 0.00 0.00 59 1006.8
20260505231006 21 71 8.0 38.6 0.00 0.00 0.00 56 1006.9
20260505230501 22 53 12.9 38.6 0.00 0.00 0.00 55 1006.9
20260505230008 23 50 11.3 30.6 0.00 0.00 0.00 52 1006.4
20260505225505 23 321 9.7 30.6 0.00 0.00 0.00 47 1006.4
20260505225009 24 334 14.5 41.8 0.00 0.00 0.00 45 1006.4
20260505224538 25 209 22.5 48.3 0.00 0.00 0.00 45 1005.4
20260505224003 25 211 22.5 48.3 0.00 0.00 0.00 45 1005.2
20260505223513 25 221 22.5 40.2 0.00 0.00 0.00 45 1004.9
20260505223005 25 237 19.3 40.2 0.00 0.00 0.00 43 1004.7
20260505222505 26 238 22.5 41.8 0.00 0.00 0.00 41 1004.6
20260505222005 26 211 24.1 41.8 0.00 0.00 0.00 38 1004.5
20260505221510 27 210 25.7 49.9 0.00 0.00 0.00 32 1004.4
20260505221006 27 234 25.7 56.3 0.00 0.00 0.00 31 1004.5
20260505220507 27 232 27.4 56.3 0.00 0.00 0.00 30 1004.2
20260505220015 27 177 32.2 69.2 0.00 0.00 0.00 29 1003.9
20260505215505 27 200 20.9 69.2 0.00 0.00 0.00 30 1004.2
20260505215007 27 212 22.5 56.3 0.00 0.00 0.00 30 1004.2
20260505214504 27 185 29.0 56.3 0.00 0.00 0.00 30 1004.2
20260505214003 27 198 20.9 49.9 0.00 0.00 0.00 30 1004.1
20260505213506 27 208 29.0 53.1 0.00 0.00 0.00 29 1004.2
20260505213006 28 213 29.0 53.1 0.00 0.00 0.00 30 1004.2
20260505212509 28 219 27.4 48.3 0.00 0.00 0.00 30 1004.0
20260505212006 27 247 29.0 48.3 0.00 0.00 0.00 30 1004.0
20260505211518 27 259 25.7 53.1 0.00 0.00 0.00 30 1003.8
20260505211003 27 219 30.6 53.1 0.00 0.00 0.00 30 1003.7
20260505210505 27 207 22.5 51.5 0.00 0.00 0.00 30 1003.7
20260505210014 27 223 20.9 53.1 0.00 0.00 0.00 31 1003.7
20260505205509 27 194 29.0 77.2 0.00 0.00 0.00 31 1003.7
20260505205006 27 219 32.2 77.2 0.00 0.00 0.00 30 1003.6
20260505204519 27 208 29.0 69.2 0.00 0.00 0.00 31 1003.7
20260505204010 27 203 32.2 67.6 0.00 0.00 0.00 31 1003.6
20260505203506 28 223 30.6 67.6 0.00 0.00 0.00 31 1003.6
20260505203008 27 173 19.3 57.9 0.00 0.00 0.00 31 1003.7
20260505202503 28 241 32.2 57.9 0.00 0.00 0.00 32 1003.7
20260505202003 28 219 32.2 72.4 0.00 0.00 0.00 31 1003.7
20260505201506 28 223 38.6 75.6 0.00 0.00 0.00 31 1003.8
20260505201011 28 189 33.8 75.6 0.00 0.00 0.00 31 1003.8
20260505200503 28 215 32.2 61.2 0.00 0.00 0.00 31 1003.9
20260505200009 28 219 29.0 61.2 0.00 0.00 0.00 32 1004.0
20260505195505 28 221 30.6 61.2 0.00 0.00 0.00 32 1003.9
20260505195003 28 215 22.5 61.2 0.00 0.00 0.00 32 1004.0
20260505194517 28 223 27.4 66.0 0.00 0.00 0.00 31 1004.0
20260505194007 28 223 38.6 66.0 0.00 0.00 0.00 31 1004.2
20260505193510 28 225 29.0 59.5 0.00 0.00 0.00 31 1004.2
20260505193025 28 182 19.3 61.2 0.00 0.00 0.00 31 1004.2
20260505192507 28 156 20.9 61.2 0.00 0.00 0.00 31 1004.2
20260505192010 28 221 27.4 59.5 0.00 0.00 0.00 31 1004.3
20260505191507 28 232 32.2 59.5 0.00 0.00 0.00 30 1004.2
20260505191007 28 213 17.7 53.1 0.00 0.00 0.00 31 1004.1
20260505190503 28 219 35.4 59.5 0.00 0.00 0.00 31 1004.2
20260505190007 28 167 32.2 62.8 0.00 0.00 0.00 33 1004.3
20260505185514 27 231 41.8 62.8 0.00 0.00 0.00 34 1004.4
20260505185004 27 191 30.6 45.1 0.00 0.00 0.00 37 1004.5
20260505184519 27 205 25.7 46.7 0.00 0.00 0.00 37 1004.4
20260505184008 28 209 27.4 51.5 0.00 0.00 0.00 37 1004.4
20260505183508 28 157 25.7 59.5 0.00 0.00 0.00 37 1004.5
20260505183020 28 227 25.7 59.5 0.00 0.00 0.00 38 1004.6
20260505182507 27 210 25.7 56.3 0.00 0.00 0.00 35 1004.6
20260505182012 27 216 33.8 56.3 0.00 0.00 0.00 37 1005.1
20260505181523 27 219 25.7 45.1 0.00 0.00 0.00 40 1004.9
20260505181012 27 207 25.7 48.3 0.00 0.00 0.00 38 1005.1
20260505180507 27 221 29.0 48.3 0.00 0.00 0.00 38 1005.2
20260505180034 27 141 24.1 48.3 0.00 0.00 0.00 38 1005.2
20260505175503 27 207 30.6 49.9 0.00 0.00 0.00 38 1005.2
20260505175007 27 207 25.7 57.9 0.00 0.00 0.00 38 1005.2
20260505174512 27 246 30.6 61.2 0.00 0.00 0.00 38 1005.2
20260505174011 27 214 29.0 61.2 0.00 0.00 0.00 38 1005.4
20260505173510 27 137 17.7 38.6 0.00 0.00 0.00 39 1005.3
20260505173031 27 198 25.7 43.5 0.00 0.00 0.00 38 1005.4
20260505172509 27 247 24.1 53.1 0.00 0.00 0.00 38 1005.5
20260505172008 27 224 33.8 53.1 0.00 0.00 0.00 38 1005.5
20260505171521 27 221 25.7 49.9 0.00 0.00 0.00 38 1005.6
20260505171007 27 153 30.6 49.9 0.00 0.00 0.00 37 1005.7
20260505170510 27 171 25.7 49.9 0.00 0.00 0.00 38 1005.5
20260505170024 27 196 22.5 41.8 0.00 0.00 0.00 38 1005.5
20260505165507 27 223 25.7 41.8 0.00 0.00 0.00 39 1005.6
20260505165011 26 173 17.7 41.8 0.00 0.00 0.00 41 1005.7
20260505164526 26 158 16.1 41.8 0.00 0.00 0.00 41 1005.9
20260505164009 27 207 14.5 41.8 0.00 0.00 0.00 42 1005.9
20260505163504 26 229 25.7 41.8 0.00 0.00 0.00 41 1006.0
20260505163028 26 221 17.7 41.8 0.00 0.00 0.00 42 1006.1
20260505162504 26 200 22.5 43.5 0.00 0.00 0.00 43 1006.2
20260505162007 26 209 24.1 43.5 0.00 0.00 0.00 43 1006.3
20260505161520 26 146 12.9 30.6 0.00 0.00 0.00 43 1006.1
20260505161007 26 142 17.7 40.2 0.00 0.00 0.00 43 1006.4
20260505160507 26 219 20.9 40.2 0.00 0.00 0.00 42 1006.6
20260505153027 24 153 19.3 38.6 0.00 0.00 0.00 44 1007.4
20260505152509 24 218 14.5 40.2 0.00 0.00 0.00 45 1007.6
20260505152008 23 231 22.5 40.2 0.00 0.00 0.00 46 1007.7
20260505151527 23 205 14.5 40.2 0.00 0.00 0.00 47 1007.8
20260505151009 23 223 25.7 40.2 0.00 0.00 0.00 47 1007.8
20260505150503 23 221 19.3 35.4 0.00 0.00 0.00 47 1008.0